| time (UTC) | temp F | wind direction | speed MPH | gust MPH | rain 1hr in | rain 24hr in | rain mn in | humidity % | barometer mb |
| 20260504044509 | 67 | 136 | 0.0 | 3.0 | 0.00 | 0.00 | 0.00 | 56 | 1015.7 |
| 20260504024504 | 71 | 161 | 0.0 | 4.0 | 0.00 | 0.00 | 0.00 | 49 | 1015.5 |
| 20260504023015 | 71 | 167 | 0.0 | 4.0 | 0.00 | 0.00 | 0.00 | 48 | 1015.6 |
| 20260504021601 | 72 | 160 | 0.0 | 6.0 | 0.00 | 0.00 | 0.00 | 47 | 1015.6 |
| 20260504014551 | 73 | 137 | 0.0 | 3.0 | 0.00 | 0.00 | 0.00 | 44 | 1015.5 |
| 20260504003001 | 77 | 109 | 0.0 | 6.0 | 0.00 | 0.00 | 0.00 | 37 | 1015.3 |
| 20260504001604 | 77 | 65 | 1.0 | 7.0 | 0.00 | 0.00 | 0.00 | 36 | 1015.4 |
| 20260504000139 | 78 | 190 | 2.0 | 10.0 | 0.00 | 0.00 | 0.00 | 35 | 1015.4 |
| 20260503234622 | 79 | 148 | 5.0 | 12.0 | 0.00 | 0.00 | 0.00 | 34 | 1015.5 |
| 20260503233056 | 81 | 200 | 2.0 | 7.0 | 0.00 | 0.00 | 0.00 | 33 | 1015.5 |
| 20260503231557 | 81 | 207 | 2.0 | 8.0 | 0.00 | 0.00 | 0.00 | 33 | 1015.6 |
| 20260503230055 | 81 | 262 | 1.0 | 12.0 | 0.00 | 0.00 | 0.00 | 33 | 1015.6 |
| 20260503224553 | 82 | 281 | 4.0 | 10.0 | 0.00 | 0.00 | 0.00 | 32 | 1015.7 |
| 20260503223050 | 83 | 183 | 2.0 | 9.0 | 0.00 | 0.00 | 0.00 | 31 | 1016.0 |
| 20260503221555 | 83 | 153 | 2.0 | 9.0 | 0.00 | 0.00 | 0.00 | 32 | 1016.1 |
| 20260503220048 | 83 | 170 | 0.0 | 9.0 | 0.00 | 0.00 | 0.00 | 31 | 1016.2 |
| 20260503214547 | 84 | 224 | 0.0 | 6.0 | 0.00 | 0.00 | 0.00 | 30 | 1016.4 |
| 20260503213153 | 84 | 134 | 0.0 | 6.0 | 0.00 | 0.00 | 0.00 | 32 | 1016.5 |
| 20260503193004 | 84 | 177 | 0.0 | 4.0 | 0.00 | 0.00 | 0.00 | 31 | 1018.6 |
| 20260503191554 | 84 | 141 | 0.0 | 6.0 | 0.00 | 0.00 | 0.00 | 32 | 1018.8 |
| 20260503184545 | 83 | 62 | 0.0 | 8.0 | 0.00 | 0.00 | 0.00 | 35 | 1019.2 |
| 20260503183049 | 82 | 221 | 0.0 | 5.0 | 0.00 | 0.00 | 0.00 | 35 | 1019.5 |
| 20260503180033 | 82 | 292 | 0.0 | 7.0 | 0.00 | 0.00 | 0.00 | 36 | 1020.0 |
| 20260503174535 | 82 | 219 | 0.0 | 4.0 | 0.00 | 0.00 | 0.00 | 37 | 1020.3 |
| 20260503173058 | 81 | 247 | 0.0 | 7.0 | 0.00 | 0.00 | 0.00 | 38 | 1020.6 |
| 20260503171613 | 81 | 280 | 0.0 | 7.0 | 0.00 | 0.00 | 0.00 | 39 | 1020.8 |
| 20260503170133 | 80 | 304 | 0.0 | 4.0 | 0.00 | 0.00 | 0.00 | 40 | 1021.0 |
| 20260503054526 | 62 | 156 | 0.0 | 0.0 | 0.00 | 0.00 | 0.00 | 59 | 1020.1 |
| 20260503053027 | 62 | 136 | 0.0 | 0.0 | 0.00 | 0.00 | 0.00 | 58 | 1020.0 |
| 20260503051524 | 63 | 169 | 0.0 | 1.0 | 0.00 | 0.00 | 0.00 | 57 | 1019.9 |
| 20260503050017 | 63 | 167 | 0.0 | 0.0 | 0.00 | 0.00 | 0.00 | 57 | 1019.9 |